Location: Newark
(34.9756°N, 138.3828°E)
Time: 22:44:30
(UTC+00:00)

N. Korean satellite - Pass Details

Date: 16 December 2019
Orbit: 454 x 507 km, 97.2° (Epoch: 21 January)

Event Time Altitude Azimuth Distance (km) Brightness Sun altitude
Rises 19:46:43 0° 30° (NNE) 2,500 10.4 -24.0°
Reaches altitude 10° 19:49:16 10° 50° (NE) 1,611 9.6 -23.5°
Maximum altitude 19:51:41 18° 95° (E) 1,201 9.4 -23.0°
Drops below altitude 10° 19:54:04 10° 139° (SE) 1,590 9.9 -22.6°
Sets 19:56:34 0° 160° (SSE) 2,454 10.6 -22.1°
